SL-3 R/B (5118 NORAD) Tracking and Keplerian Element Data

This shows tracking and keplerian element data for the satellite.

Feedback or suggestion? Click here.




ElementValue
Catalog5118
NameSL-3 R/B
Epoch Orbit92694
Epoch Day34.86128506
Epoch Year2025
RAAN175.1941
Inclination81.2466
Eccentricity0.0029451
Argument of Perigee250.5931
Mean Anonmoly109.2127
Mean Motion15.38755479
Decay Rate0.00025396
L11 05118U 71028B 25034.86128506 .00025396 00000+0 65128-3 0 9992
L22 05118 81.2466 175.1941 0029451 250.5931 109.2127 15.38755479926944



Live tracking and technical data element details for SL-3 R/B (NORAD 5118). SL-3 R/B can be tracked NOW for your location showing map with azimuth and elevation plus other details from your city location.







IsCatalogInMostPopularTable: catalog: 5118, numindb: 363
Update: records affected: 1



GetName: 5118 SL-3 R/B

Hit Count: updated at: Thu, 15 May 2025 19:46:59 GMT